OOMS

Muscat International Airport

Airport
ICAO code
OOMS
IATA Code
MCT
Summary
ICAO Region
MID
ICAO Territory
Location

Seeb, Muscat

Serving
Muscat
Coordinates
23° 35' 36" N , 58° 16' 54" E
KCC
Metar
OOMS 271050Z 36006KT 9999 SCT025 BKN090 24/15 Q1013 NOSIG

International airport serving Muscat, the capital of Oman.

Climatology

Hot Desert Climate (Köppen climate classification BWh)

Runways

Designator Length Width Surface Rops
2/20 750 30 GRE Yes/Yes
8/26 3589 45 ASP Yes/Yes

Airport map

Aerial View

SKYbrary Partners:

Safety knowledge contributed by: